TimeEDT,TemperatureF,Dew PointF,Humidity,Sea Level PressureIn,VisibilityMPH,Wind Direction,Wind SpeedMPH,Gust SpeedMPH,PrecipitationIn,Events,Conditions,WindDirDegrees,DateUTC
12:52 AM,54.0,18.0,24,30.43,10.0,East,15.0,24.2,N/A,,Overcast,100,2013-05-03 04:52:00
1:52 AM,52.0,23.0,32,30.44,10.0,East,16.1,25.3,N/A,,Overcast,100,2013-05-03 05:52:00
2:52 AM,51.1,27.0,39,30.45,10.0,ESE,16.1,24.2,N/A,,Overcast,110,2013-05-03 06:52:00
3:52 AM,50.0,28.0,43,30.46,10.0,East,15.0,21.9,N/A,,Overcast,100,2013-05-03 07:52:00
4:52 AM,50.0,28.0,43,30.47,10.0,East,13.8,-,N/A,,Overcast,100,2013-05-03 08:52:00
5:52 AM,48.0,28.9,48,30.49,10.0,East,8.1,-,N/A,,Scattered Clouds,90,2013-05-03 09:52:00
6:52 AM,48.0,28.9,48,30.49,10.0,East,8.1,-,N/A,,Clear,90,2013-05-03 10:52:00
7:52 AM,50.0,30.9,48,30.50,10.0,Variable,5.8,-,N/A,,Clear,0,2013-05-03 11:52:00
8:52 AM,52.0,28.0,40,30.49,10.0,ESE,13.8,20.7,N/A,,Clear,110,2013-05-03 12:52:00
9:52 AM,55.0,28.0,35,30.48,10.0,ESE,11.5,18.4,N/A,,Clear,110,2013-05-03 13:52:00
10:52 AM,59.0,28.9,32,30.46,10.0,SE,6.9,-,N/A,,Clear,130,2013-05-03 14:52:00
12:52 PM,64.0,30.0,28,30.42,10.0,SE,5.8,-,N/A,,Clear,140,2013-05-03 16:52:00
1:52 PM,64.9,28.9,26,30.40,10.0,ESE,9.2,-,N/A,,Clear,110,2013-05-03 17:52:00
2:52 PM,66.0,28.9,25,30.38,10.0,South,8.1,-,N/A,,Clear,170,2013-05-03 18:52:00
3:52 PM,68.0,30.9,25,30.36,10.0,Variable,6.9,-,N/A,,Clear,0,2013-05-03 19:52:00
4:52 PM,68.0,30.9,25,30.34,10.0,ESE,9.2,-,N/A,,Clear,120,2013-05-03 20:52:00
5:52 PM,66.9,30.9,26,30.34,10.0,ESE,5.8,16.1,N/A,,Clear,120,2013-05-03 21:52:00
6:52 PM,66.0,33.1,29,30.34,10.0,SE,9.2,-,N/A,,Clear,140,2013-05-03 22:52:00
7:52 PM,62.1,35.1,37,30.35,10.0,ESE,5.8,-,N/A,,Clear,120,2013-05-03 23:52:00
8:52 PM,60.1,37.0,42,30.37,10.0,ESE,8.1,-,N/A,,Clear,110,2013-05-04 00:52:00
9:52 PM,57.9,37.0,46,30.38,10.0,East,4.6,-,N/A,,Clear,80,2013-05-04 01:52:00
10:52 PM,55.0,37.9,53,30.38,10.0,ESE,5.8,-,N/A,,Clear,110,2013-05-04 02:52:00
11:52 PM,54.0,37.9,55,30.39,10.0,East,5.8,-,N/A,,Clear,90,2013-05-04 03:52:00